KC9CW-13 Weather Reports


Display with metric or nautical units.
time (UTC)temp
F
wind
direction
speed
MPH
gust
MPH
rain 1hr
in
rain 24hr
in
rain mn
in
humidity
%
barometer
mb
20260504050512 59 178 5.0 9.0 0.00 0.00 0.00 60 1010.7
20260504050014 59 186 4.0 10.0 0.00 0.00 0.00 59 1010.7
20260504045507 59 217 5.0 10.0 0.00 0.00 0.00 59 1010.7
20260504045006 59 204 4.0 10.0 0.00 0.00 0.00 59 1010.7
20260504044516 59 188 4.0 8.0 0.00 0.00 0.00 58 1010.7
20260504044008 59 190 3.0 8.0 0.00 0.00 0.00 58 1010.8
20260504043508 59 209 3.0 10.0 0.00 0.00 0.00 57 1010.8
20260504043022 59 207 5.0 11.0 0.00 0.00 0.00 57 1010.7
20260504042508 59 196 5.0 11.0 0.00 0.00 0.00 57 1010.6
20260504042011 60 186 6.0 10.0 0.00 0.00 0.00 57 1010.8
20260504041523 59 206 5.0 10.0 0.00 0.00 0.00 57 1010.9
20260504041010 59 207 4.0 8.0 0.00 0.00 0.00 57 1010.9
20260504040508 60 190 4.0 9.0 0.00 0.00 0.00 57 1011.0
20260504040031 59 189 4.0 9.0 0.00 0.00 0.00 57 1011.0
20260504035507 59 183 5.0 9.0 0.00 0.00 0.00 57 1011.0
20260504035007 59 180 4.0 9.0 0.00 0.00 0.00 57 1010.9
20260504034528 59 175 4.0 9.0 0.00 0.00 0.00 58 1010.9
20260504034008 59 153 4.0 11.0 0.00 0.00 0.00 58 1010.9
20260504033507 60 171 5.0 12.0 0.00 0.00 0.00 58 1010.9
20260504033027 60 177 5.0 12.0 0.00 0.00 0.00 57 1011.0
20260504032513 60 165 4.0 9.0 0.00 0.00 0.00 57 1011.2
20260504032010 60 187 4.0 10.0 0.00 0.00 0.00 56 1011.3
20260504031524 60 159 5.0 9.0 0.00 0.00 0.00 55 1011.3
20260504031011 60 152 3.0 12.0 0.00 0.00 0.00 55 1011.2
20260504030509 60 198 5.0 12.0 0.00 0.00 0.00 54 1011.2
20260504030035 61 158 5.0 11.0 0.00 0.00 0.00 53 1011.4
20260504025512 61 205 5.0 11.0 0.00 0.00 0.00 52 1011.4
20260504025011 61 171 4.0 10.0 0.00 0.00 0.00 52 1011.4
20260504024528 61 215 4.0 8.0 0.00 0.00 0.00 52 1011.4
20260504024004 61 187 4.0 7.0 0.00 0.00 0.00 52 1011.6
20260504023508 61 234 3.0 7.0 0.00 0.00 0.00 52 1011.6
20260504023018 61 152 4.0 10.0 0.00 0.00 0.00 53 1011.5
20260504022508 61 155 3.0 11.0 0.00 0.00 0.00 52 1011.3
20260504022008 61 198 4.0 12.0 0.00 0.00 0.00 52 1011.1
20260504021524 61 173 6.0 12.0 0.00 0.00 0.00 53 1011.1
20260504021008 61 172 4.0 12.0 0.00 0.00 0.00 53 1011.1
20260504020510 61 183 6.0 12.0 0.00 0.00 0.00 53 1011.0
20260504020022 60 193 4.0 11.0 0.00 0.00 0.00 53 1010.9
20260504015509 60 208 4.0 11.0 0.00 0.00 0.00 54 1011.0
20260504015010 60 162 4.0 9.0 0.00 0.00 0.00 54 1011.1
20260504014526 60 206 3.0 9.0 0.00 0.00 0.00 53 1011.0
20260504014009 61 206 4.0 9.0 0.00 0.00 0.00 53 1011.1
20260504013508 61 181 4.0 9.0 0.00 0.00 0.00 52 1011.1
20260504013017 61 165 4.0 9.0 0.00 0.00 0.00 52 1011.1
20260504012505 61 207 4.0 9.0 0.00 0.00 0.00 52 1011.2
20260504012008 61 170 3.0 9.0 0.00 0.00 0.00 52 1011.2
20260504011522 61 150 3.0 8.0 0.00 0.00 0.00 52 1011.3
20260504011008 61 194 4.0 8.0 0.00 0.00 0.00 52 1011.3
20260504010509 62 175 4.0 7.0 0.00 0.00 0.00 52 1011.3
20260504010025 62 167 3.0 7.0 0.00 0.00 0.00 51 1011.3
20260504005503 62 233 3.0 7.0 0.00 0.00 0.00 51 1011.4
20260504005004 62 184 4.0 9.0 0.00 0.00 0.00 50 1011.4
20260504004508 63 161 3.0 9.0 0.00 0.00 0.00 50 1011.4
20260504004006 63 223 4.0 7.0 0.00 0.00 0.00 50 1011.5
20260504003508 63 188 4.0 7.0 0.00 0.00 0.00 50 1011.6
20260504003012 63 200 3.0 8.0 0.00 0.00 0.00 49 1011.6
20260504002505 63 198 4.0 8.0 0.00 0.00 0.00 48 1011.7
20260504002009 63 187 3.0 8.0 0.00 0.00 0.00 48 1011.8
20260504001516 64 203 3.0 7.0 0.00 0.00 0.00 47 1011.8
20260504001009 64 191 3.0 7.0 0.00 0.00 0.00 47 1011.9
20260504000510 64 177 3.0 11.0 0.00 0.00 0.00 46 1011.8
20260504000005 64 254 4.0 11.0 0.00 0.00 0.00 46 1011.9
20260503235504 64 217 4.0 11.0 0.00 0.00 0.00 46 1011.9
20260503235004 64 194 3.0 12.0 0.00 0.00 0.00 45 1011.9
20260503234511 64 202 5.0 12.0 0.00 0.00 0.00 45 1011.9
20260503234005 64 177 6.0 12.0 0.00 0.00 0.00 45 1011.9
20260503233504 65 161 5.0 13.0 0.00 0.00 0.00 44 1011.9
20260503233012 65 196 4.0 15.0 0.00 0.00 0.00 44 1011.8
20260503232505 65 204 5.0 15.0 0.00 0.00 0.00 43 1011.8
20260503232005 65 196 8.0 15.0 0.00 0.00 0.00 43 1011.7
20260503231519 66 184 8.0 15.0 0.00 0.00 0.00 43 1011.6
20260503231007 66 170 6.0 15.0 0.00 0.00 0.00 44 1011.6
20260503230508 66 190 6.0 17.0 0.00 0.00 0.00 44 1011.6
20260503230020 66 164 6.0 17.0 0.00 0.00 0.00 44 1011.6
20260503225509 65 202 5.0 19.0 0.00 0.00 0.00 44 1011.6
20260503225009 65 196 7.0 21.0 0.00 0.00 0.00 45 1011.7
20260503224504 65 171 9.0 21.0 0.00 0.00 0.00 44 1011.7
20260503224004 66 165 5.0 17.0 0.00 0.00 0.00 44 1011.8
20260503223503 66 225 7.0 17.0 0.00 0.00 0.00 45 1011.9
20260503223020 66 183 9.0 17.0 0.00 0.00 0.00 44 1011.7
20260503222504 66 201 9.0 19.0 0.00 0.00 0.00 43 1011.7
20260503222008 66 168 9.0 19.0 0.00 0.00 0.00 43 1011.8
20260503221516 66 178 7.0 17.0 0.00 0.00 0.00 44 1011.7
20260503221010 66 208 6.0 19.0 0.00 0.00 0.00 42 1011.7
20260503220509 66 194 10.0 21.0 0.00 0.00 0.00 44 1011.8
20260503220023 66 212 7.0 22.0 0.00 0.00 0.00 44 1011.9
20260503215508 66 173 13.0 22.0 0.00 0.00 0.00 44 1012.0
20260503215011 66 189 10.0 20.0 0.00 0.00 0.00 44 1012.0
20260503214522 66 192 9.0 20.0 0.00 0.00 0.00 46 1012.2
20260503214004 66 130 6.0 17.0 0.00 0.00 0.00 45 1012.1
20260503213506 66 200 9.0 17.0 0.00 0.00 0.00 44 1012.2
20260503213009 66 170 6.0 16.0 0.00 0.00 0.00 45 1012.4
20260503212504 66 157 10.0 16.0 0.00 0.00 0.00 43 1012.5
20260503212007 66 227 6.0 19.0 0.00 0.00 0.00 45 1012.7
20260503211518 65 168 8.0 20.0 0.00 0.00 0.00 44 1012.7
20260503211005 66 185 8.0 20.0 0.00 0.00 0.00 43 1012.8
20260503210509 66 189 11.0 19.0 0.00 0.00 0.00 43 1012.9
20260503210018 66 188 5.0 20.0 0.00 0.00 0.00 44 1013.1
20260503205512 66 109 7.0 26.0 0.00 0.00 0.00 42 1013.3
20260503205010 66 168 9.0 24.0 0.00 0.00 0.00 43 1013.5
20260503204533 66 196 5.0 11.0 0.00 0.00 0.00 43 1013.7
20260503204011 65 230 4.0 24.0 0.00 0.00 0.00 42 1013.8
20260503203507 65 205 10.0 24.0 0.00 0.00 0.00 45 1014.1
20260503203014 66 213 6.0 12.0 0.00 0.00 0.00 45 1014.3
20260503202503 66 174 5.0 17.0 0.00 0.00 0.00 42 1014.6
20260503202008 66 212 5.0 17.0 0.00 0.00 0.00 44 1014.7
20260503201512 66 180 7.0 17.0 0.00 0.00 0.00 44 1014.8
20260503201007 66 152 8.0 15.0 0.00 0.00 0.00 44 1015.0
20260503200509 65 200 5.0 17.0 0.00 0.00 0.00 44 1015.1
20260503200014 65 163 8.0 17.0 0.00 0.00 0.00 43 1015.1
20260503195509 66 202 6.0 13.0 0.00 0.00 0.00 45 1015.1
20260503195010 65 327 4.0 16.0 0.00 0.00 0.00 42 1015.1
20260503194524 65 217 4.0 19.0 0.00 0.00 0.00 42 1015.1
20260503194010 65 148 10.0 19.0 0.00 0.00 0.00 45 1015.3
20260503193510 65 145 7.0 16.0 0.00 0.00 0.00 45 1015.3
20260503193024 64 205 9.0 16.0 0.00 0.00 0.00 45 1015.4
20260503192507 64 191 7.0 14.0 0.00 0.00 0.00 45 1015.4
20260503192003 65 196 7.0 21.0 0.00 0.00 0.00 41 1015.4
20260503191508 64 201 8.0 21.0 0.00 0.00 0.00 41 1015.7
20260503191008 64 232 8.0 15.0 0.00 0.00 0.00 45 1015.7
20260503190505 64 209 6.0 24.0 0.00 0.00 0.00 45 1015.9
20260503190015 64 152 9.0 24.0 0.00 0.00 0.00 43 1015.9
20260503185509 64 147 7.0 16.0 0.00 0.00 0.00 45 1015.9
20260503185006 64 194 6.0 16.0 0.00 0.00 0.00 46 1016.1
20260503184519 64 181 6.0 15.0 0.00 0.00 0.00 45 1016.1
20260503184010 63 163 7.0 17.0 0.00 0.00 0.00 46 1016.3
20260503183509 63 169 8.0 17.0 0.00 0.00 0.00 47 1016.5
20260503183026 63 210 8.0 15.0 0.00 0.00 0.00 46 1016.8
20260503182512 63 229 8.0 14.0 0.00 0.00 0.00 46 1016.9
20260503182009 64 153 5.0 14.0 0.00 0.00 0.00 49 1017.0
20260503181524 63 178 3.0 14.0 0.00 0.00 0.00 49 1017.2
20260503181004 63 169 8.0 17.0 0.00 0.00 0.00 46 1017.3
20260503180507 63 203 6.0 18.0 0.00 0.00 0.00 47 1017.3
20260503180025 63 203 5.0 18.0 0.00 0.00 0.00 48 1017.6
20260503175509 62 216 5.0 16.0 0.00 0.00 0.00 49 1017.6
20260503175008 62 207 8.0 16.0 0.00 0.00 0.00 50 1017.7
20260503174521 62 158 5.0 17.0 0.00 0.00 0.00 48 1017.7
20260503174007 62 223 10.0 17.0 0.00 0.00 0.00 48 1017.7
20260503173507 62 175 8.0 16.0 0.00 0.00 0.00 49 1017.8
20260503173022 62 198 5.0 15.0 0.00 0.00 0.00 50 1018.0
20260503172509 61 185 7.0 13.0 0.00 0.00 0.00 49 1018.2
20260503172012 61 217 4.0 18.0 0.00 0.00 0.00 47 1018.3
20260503171529 62 187 5.0 18.0 0.00 0.00 0.00 50 1018.3
20260503171011 62 174 8.0 15.0 0.00 0.00 0.00 48 1018.4
20260503170511 62 198 7.0 14.0 0.00 0.00 0.00 48 1018.6
20260503151010 58 200 5.0 14.0 0.00 0.00 0.00 55 1019.4
20260503150506 57 215 7.0 14.0 0.00 0.00 0.00 54 1019.5
20260503131010 49 184 3.0 8.0 0.00 0.01 0.00 1019.7
20260503130511 49 221 3.0 8.0 0.00 0.01 0.00 69 1019.8
20260503110514 40 141 0.0 2.0 0.00 0.01 0.00 78 1019.3
20260503090509 41 165 1.0 4.0 0.00 0.01 0.00 78 1019.3
20260503081537 43 178 0.0 2.0 0.00 0.01 0.00 72 1019.2
20260503081012 43 161 0.0 2.0 0.00 0.01 0.00 73 1019.2
20260503080508 42 155 0.0 2.0 0.00 0.01 0.00 75 1019.1
20260503072512 41 170 0.0 0.0 0.00 0.01 0.00 75 1019.1
20260503072012 41 194 0.0 0.0 0.00 0.01 0.00 76 1019.1
20260503071536 41 194 0.0 0.0 0.00 0.01 0.00 77 1019.2
20260503071006 41 199 0.0 0.0 0.00 0.01 0.00 78 1019.1
20260503070511 40 306 0.0 0.0 0.00 0.01 0.00 80 1019.1